Location: *
(40.7765°S, 106.5327°E)
Time: 06:40:43
(UTC+00:00)

ARGOS - Visible Passes

Search period start: 06 October 2022 00:00
Search period end: 16 October 2022 00:00
Orbit: 820 x 834 km, 98.4° (Epoch: 05 October)

Date Brightness Start Highest point End Pass type
(mag) Time Alt. Az. Time Alt. Az. Time Alt. Az.
06 Oct 3.9 11:50:32 10° S 11:55:52 58° WSW 12:01:09 10° NNW visible
06 Oct 5.5 21:33:59 10° NE 21:38:37 29° ESE 21:43:16 10° S visible
07 Oct 3.3 11:31:45 10° SSE 11:37:14 85° WSW 11:42:36 10° NNW visible
07 Oct 6.5 13:14:38 10° SW 13:16:36 12° WSW 13:18:34 10° W visible
07 Oct 6.1 21:16:11 10° ENE 21:20:07 21° ESE 21:24:04 10° SSE visible
08 Oct 6.1 12:54:45 10° SSW 12:58:11 17° WSW 13:01:36 10° W visible
08 Oct 6.4 20:58:50 10° E 21:01:41 15° ESE 21:04:32 10° SSE visible
09 Oct 5.6 12:35:25 10° SSW 12:39:43 24° WSW 12:43:58 10° WNW visible
10 Oct 5.0 12:16:19 10° S 12:21:12 35° WSW 12:26:01 10° NW visible
11 Oct 4.2 11:57:22 10° S 12:02:36 50° WSW 12:07:47 10° NW visible
11 Oct 5.3 21:40:30 10° NE 21:45:20 33° ESE 21:50:12 10° S visible
12 Oct 3.5 11:38:33 10° S 11:43:59 73° WSW 11:49:20 10° NNW visible
12 Oct 6.7 13:22:47 10° SW 13:23:15 10° WSW 13:23:43 10° WSW visible
12 Oct 5.9 21:22:35 10° ENE 21:26:49 24° ESE 21:31:04 10° SSE visible
13 Oct 6.3 13:01:54 10° SSW 13:04:51 15° WSW 13:07:47 10° W visible
13 Oct 6.3 21:05:01 10° E 21:08:21 17° ESE 21:11:42 10° SSE visible
14 Oct 5.9 12:42:25 10° SSW 12:46:24 21° WSW 12:50:21 10° WNW visible
14 Oct 6.7 20:48:11 10° ESE 20:49:57 12° ESE 20:51:42 10° SE visible
15 Oct 5.3 12:23:14 10° S 12:27:54 30° WSW 12:32:31 10° NW visible
